RH
99 102 102 100 101 101 100 100 99 99 99 97 95 92 90 87 84 82 80 79 80 79 78 78 78 76 74 71 68 66 65 64 63 62 61 60 60 59 59 59 60 59 59 59 58 56 52 49 47 47 46 44
100 102 102 100 102 101 99 96 92 90 87 85 82 79 78 78 77 77 76 75 75 73 72 70 69 67 65 63 62 61 60 59 57 56 55 55 55 56 57 59 61 61 62 63 63 61 59 57 56 55 53 50
101 102 102 101 101 98 95 91 87 84 81 80 79 78 76 75 73 72 70 68 67 66 65 63 62 60 59 57 56 55 54 54 53 52 52 51 52 55 59 63 65 66 67 69 71 71 69 67 64 63 60 55
102 102 100 99 96 93 90 88 86 83 80 78 75 72 69 67 65 63 61 58 57 58 58 57 57 56 55 55 55 56 57 58 59 60 60 61 63 67 71 73 72 73 74 75 77 77 75 72 69 66 64 60
103 101 98 97 93 88 84 80 77 73 68 64 60 57 54 54 54 54 54 54 55 56 57 57 58 59 60 62 64 67 71 75 78 79 79 80 82 83 85 83 79 78 79 80 80 79 76 74 71 69 68 67
100 96 93 89 82 75 70 65 61 57 55 55 53 53 54 56 58 59 60 61 62 63 65 66 68 70 72 75 77 79 83 87 90 92 93 94 94 92 91 89 85 82 84 85 85 83 81 79 77 75 74 71
84 82 78 72 67 64 61 58 57 57 59 59 60 61 65 70 72 74 75 75 74 75 77 79 81 83 83 83 82 82 81 81 81 81 83 84 86 87 88 88 89 89 90 89 86 84 81 79 77 74 70 66
69 70 71 68 66 64 62 60 60 61 62 62 63 67 71 75 77 78 79 81 82 83 83 84 84 84 83 81 79 76 73 71 68 66 65 66 69 75 81 86 89 89 87 84 80 76 73 70 67 65 62 58
68 70 71 70 67 64 61 59 59 60 61 61 62 64 65 65 67 70 74 77 78 78 77 75 75 73 72 72 71 69 67 66 64 63 63 64 67 70 75 79 81 80 77 74 71 67 64 61 60 58 56 54
73 73 71 69 65 62 59 58 57 58 58 57 56 54 53 53 55 58 61 63 64 64 63 62 62 62 63 63 64 64 64 64 64 64 64 64 65 65 66 66 67 66 65 63 61 59 57 56 55 55 54 54
78 76 72 68 65 62 59 58 58 58 58 58 56 54 53 53 54 54 54 55 55 56 55 55 55 56 58 59 60 61 61 62 61 59 57 55 54 54 55 55 55 55 55 54 54 54 53 53 53 52 52 52
81 79 76 71 68 65 64 63 63 63 64 63 61 58 56 56 55 55 55 56 56 56 55 55 54 54 55 55 56 57 58 58 56 52 48 47 48 50 51 51 52 52 53 53 53 53 52 51 50 49 48 48
82 81 78 76 73 72 71 71 70 70 69 67 65 62 60 58 57 55 54 55 56 57 57 57 56 55 55 54 54 53 52 50 48 46 44 44 46 49 50 51 52 52 53 53 53 52 51 50 49 48 47 47
78 78 76 75 73 71 71 71 70 69 67 65 62 59 57 54 52 51 51 53 55 56 57 56 55 54 53 52 51 49 49 49 48 47 46 47 48 49 49 50 50 51 52 52 52 52 51 51 50 49 49 49
75 76 75 74 73 71 69 68 66 64 61 58 55 54 53 52 52 53 55 57 58 59 59 59 58 57 56 54 54 55 55 55 55 54 53 52 51 51 51 51 51 51 52 52 52 51 52 52 51 51 51 52
67 67 66 65 64 62 60 58 57 56 56 57 58 60 60 61 62 63 64 65 64 64 63 62 61 60 58 59 60 61 62 61 61 60 59 58 56 56 56 56 56 54 54 55 55 54 55 55 55 54 54 53
54 55 56 57 59 62 65 68 71 75 78 82 85 87 86 85 85 85 85 83 81 79 77 75 73 72 71 72 72 72 71 69 68 68 67 66 65 65 66 66 65 62 61 62 62 61 60 59 58 57 56 56
56 59 63 67 73 79 85 90 93 95 97 98 99 99 98 96 95 95 94 92 90 87 84 82 80 80 79 79 80 79 77 75 73 73 72 71 70 69 69 69 68 67 67 66 66 64 62 61 60 60 59 59
64 67 70 72 75 78 79 81 82 83 83 83 82 82 82 81 80 80 79 79 78 77 74 71 70 69 68 69 71 72 72 72 71 70 70 69 68 68 67 67 67 67 67 66 65 63 61 61 60 59 60 60
79 79 79 77 77 76 74 73 71 70 70 69 69 68 68 69 70 70 70 69 69 69 67 65 64 64 64 65 67 69 69 69 68 68 68 68 67 67 66 66 65 65 64 63 62 61 60 59 58 58 58 58
81 79 77 75 74 73 72 71 70 69 69 69 69 69 70 71 73 74 72 71 70 69 68 66 66 66 66 67 68 68 68 67 65 64 64 64 63 63 62 61 61 60 59 58 57 57 56 54 53 51 49 48
69 67 66 65 64 64 63 63 63 64 65 66 66 67 67 68 69 69 68 67 66 65 65 64 63 62 62 62 62 61 61 60 58 57 56 56 55 54 53 52 50 49 48 46 44 43 42 40 38 36 34 32
66 65 64 63 62 61 60 59 59 59 59 59 59 59 58 58 58 58 58 57 56 56 55 55 54 52 51 50 48 47 46 45 43 42 41 40 39 37 36 35 34 33 32 31 30 29 29 28 27 26 25 25
50 49 48 47 46 45 44 43 42 42 41 41 41 40 40 39 39 38 38 38 37 37 36 35 34 33 32 30 30 29 29 28 28 28 27 27 26 27 27 26 27 27 26 27 28 29 30 31 31 30 30 31
30 30 29 29 28 28 28 27 27 26 26 26 27 27 27 27 27 27 27 27 27 27 27 27 27 28 28 28 28 29 29 30 30 30 30 30 31 32 34 35 35 33 33 35 37 38 39 39 39 38 38 38
26 26 26 26 25 25 25 25 25 25 25 25 26 27 27 28 28 28 29 30 30 30 31 31 33 34 35 36 36 36 37 38 39 39 38 38 38 38 39 40 39 36 35 35 37 37 37 37 35 34 33 32
21 21 20 20 20 20 20 20 19 20 20 20 21 21 22 22 23 23 24 24 25 25 25 26 27 29 30 30 30 30 31 32 33 33 33 32 32 32 31 31 31 29 27 26 25 25 26 27 26 25 24 23
18 18 18 18 18 18 18 18 17 17 17 17 17 17 18 18 18 18 19 19 20 20 20 21 21 22 23 23 23 23 24 25 25 26 26 26 26 26 26 26 26 26 25 24 23 23 24 24 25 26 24 23
22 22 22 21 21 21 21 21 21 21 21 21 20 20 20 20 20 20 20 20 20 20 20 21 21 21 22 22 21 21 21 22 22 22 22 22 22 22 23 23 23 23 23 22 21 21 22 21 22 24 24 24
25 24 24 24 24 24 24 24 24 24 24 24 24 25 25 25 25 25 25 25 25 25 25 25 25 26 26 26 25 24 24 24 24 24 24 23 23 23 22 22 23 23 22 21 20 19 19 19 19 19 19 20
22 22 21 21 21 22 22 22 22 23 23 24 24 25 26 26 27 27 27 28 28 28 28 29 29 29 30 30 30 29 29 28 28 28 28 28 28 27 27 26 27 27 27 26 25 23 22 22 21 21 21 21
Wind_Speed
83 84 84 85 85 85 86 85 85 85 84 84 84 85 85 85 86 86 87 87 87 88 88 88 89 89 89 89 89 89 89 89 89 89 90 90 90 90 90 90 89 89 88 88 88 88 88 88 87 87 86 86
85 86 86 86 86 86 87 87 87 87 87 88 88 88 88 89 89 89 90 90 90 90 90 91 91 91 91 91 91 91 91 91 91 91 92 91 91 91 91 91 91 90 90 90 89 89 89 89 89 89 89 88
88 88 88 89 89 89 90 90 90 90 91 91 91 91 91 91 91 92 92 92 92 92 93 93 93 93 93 93 93 93 93 93 93 93 93 93 93 93 92 92 92 92 92 92 92 92 92 91 91 91 92 91
90 91 91 91 92 92 93 93 93 93 93 93 93 93 93 93 93 94 94 94 94 94 94 95 95 95 95 95 95 95 95 95 95 95 95 95 95 94 94 94 94 94 94 95 95 95 95 95 94 94 94 94
93 93 93 94 95 96 96 95 96 96 96 95 95 95 95 95 95 96 96 96 95 96 96 97 97 97 97 97 97 97 97 97 97 96 96 96 96 96 96 96 96 96 96 97 97 97 97 97 97 96 96 96
96 96 96 97 98 98 98 97 97 97 97 97 97 97 97 97 98 98 98 98 98 98 99 99 99 99 99 99 99 99 98 98 98 98 98 98 99 99 99 99 98 98 98 98 98 98 98 98 99 99 99 99
97 97 98 99 99 99 99 99 99 99 100 100 100 100 100 100 100 100 101 101 101 101 101 101 101 101 101 101 101 101 101 101 101 101 102 102 102 102 102 102 101 101 101 101 101 101 101 101 101 102 102 102
98 99 100 101 102 102 102 102 102 102 103 103 103 103 103 103 103 103 103 103 103 103 103 103 103 103 103 104 104 104 104 104 104 105 105 105 105 105 105 105 105 104 104 104 104 104 104 104 105 105 105 105
100 101 103 104 105 105 106 106 105 105 105 105 105 105 105 105 105 105 105 105 106 106 107 107 107 107 107 107 107 107 106 106 106 106 106 106 106 106 106 106 107 107 107 107 107 107 107 107 108 108 108 108
103 104 106 107 108 108 108 107 107 107 107 107 108 108 108 107 107 108 108 108 109 110 110 110 110 110 110 109 109 109 108 108 108 108 108 108 108 108 109 109 109 110 110 110 110 111 111 111 111 111 112 112
105 107 109 109 110 110 110 109 108 108 109 110 111 111 111 111 111 111 112 112 112 113 113 113 113 113 113 113 112 112 111 111 110 111 111 111 111 112 112 112 113 113 113 114 114 114 114 114 115 115 115 115
109 111 112 112 112 112 112 111 111 111 112 113 114 114 114 114 115 115 115 116 116 116 116 116 116 116 116 116 116 115 115 114 115 115 116 116 115 116 116 116 116 116 117 117 117 117 118 118 118 118 119 119
113 114 115 116 116 115 115 115 115 115 116 116 117 118 118 118 118 118 118 118 118 118 118 118 118 118 118 118 118 118 118 119 119 120 120 120 120 120 120 120 120 120 120 120 120 121 121 121 121 121 121 121
116 118 119 119 119 119 118 118 119 119 119 120 120 121 121 121 120 120 120 119 120 120 120 121 121 121 121 121 121 121 122 123 124 124 124 124 124 124 124 124 124 124 124 124 124 124 124 124 124 124 124 123
119 120 121 122 122 122 122 122 121 121 121 122 122 122 122 122 122 122 122 122 122 123 124 124 125 125 125 125 125 126 127 127 128 128 128 128 128 128 128 128 128 127 127 127 127 127 127 127 127 126 126 126
122 122 123 123 123 123 123 122 122 122 121 122 122 123 124 124 125 126 127 127 127 128 128 129 130 130 130 130 131 131 132 132 132 132 132 132 132 132 132 132 131 131 130 130 130 130 130 130 130 129 130 130
121 122 122 122 122 122 123 123 123 123 123 124 126 127 128 128 129 131 132 132 132 133 133 134 134 135 135 135 136 136 137 136 136 136 136 136 136 135 135 135 134 134 134 133 133 133 133 133 133 133 133 133
122 123 123 124 125 126 127 128 128 129 129 130 131 132 133 134 134 135 136 136 137 137 137 138 138 139 139 139 139 140 140 140 140 140 139 139 139 138 138 138 137 137 137 137 137 137 137 137 137 137 138 138
127 128 129 130 131 133 134 135 135 135 136 137 137 138 139 139 140 140 141 141 141 142 142 142 142 142 142 142 142 143 143 143 143 143 142 142 142 142 141 141 141 141 141 141 141 142 142 142 142 142 142 142
134 135 137 138 138 139 140 140 141 141 142 142 143 143 143 143 144 144 145 145 145 146 146 146 146 146 145 145 146 146 146 147 147 146 146 146 146 145 145 145 145 145 145 145 146 146 146 146 145 145 145 144
141 142 143 143 144 144 145 145 145 145 145 146 146 147 147 147 147 148 148 148 149 149 150 150 149 149 149 149 150 150 151 151 151 150 150 150 150 149 149 149 149 149 149 148 148 148 147 147 147 146 145 144
145 146 146 147 147 148 148 148 148 148 149 149 150 150 150 150 151 152 152 152 153 153 154 154 154 154 154 154 154 154 155 155 154 154 153 153 152 152 151 150 150 149 149 148 147 147 146 146 145 145 144 143
150 150 151 151 152 152 152 153 153 153 153 153 154 155 155 155 155 155 156 156 156 156 157 157 156 156 156 156 155 155 155 154 154 154 153 152 151 151 150 149 148 148 147 146 145 144 144 143 143 143 142 141
151 151 152 152 152 153 153 153 153 153 153 153 154 154 154 154 154 155 155 155 155 155 155 155 155 154 154 154 153 153 152 152 151 151 150 150 149 148 147 147 146 146 145 144 143 142 142 142 142 141 140 140
147 147 148 148 148 148 149 149 149 149 149 149 149 150 150 150 150 150 151 151 151 151 151 151 151 151 151 151 151 150 150 150 150 149 149 148 147 146 146 146 146 146 145 143 143 142 142 141 141 141 140 139
143 143 144 144 144 144 145 145 145 145 145 145 145 146 146 147 147 147 147 148 148 148 148 148 148 149 149 150 150 149 149 149 149 149 148 147 147 146 146 146 146 146 145 144 143 142 142 141 141 140 140 139
138 138 139 139 140 140 140 140 141 141 141 141 141 141 141 142 142 142 143 143 144 144 144 144 144 145 146 146 146 146 146 146 146 146 146 145 145 145 144 144 144 144 143 142 141 140 139 138 138 138 137 136
135 135 136 136 137 137 137 138 138 138 138 138 138 138 138 138 139 138 139 139 139 139 139 139 139 140 141 142 142 141 141 141 141 141 141 141 141 140 140 140 140 140 140 139 138 136 135 135 134 134 134 133
134 135 135 136 136 137 137 137 137 137 137 138 138 138 138 138 138 138 137 137 138 137 137 137 137 137 138 139 139 138 138 137 138 138 138 138 137 137 136 136 136 137 137 137 136 134 134 133 132 132 132 132
135 136 136 136 137 137 137 138 138 138 138 138 139 139 139 139 139 139 138 138 138 138 138 137 137 138 138 139 139 138 137 137 137 137 137 136 136 136 135 134 134 134 135 135 134 133 132 131 131 130 130 130
136 136 137 137 137 137 138 138 138 139 139 139 139 140 140 140 140 140 140 140 140 140 139 139 139 140 140 140 140 140 139 139 138 138 138 137 137 136 136 135 134 134 134 135 134 133 132 131 130 129 128 128
Wind_Direction
255 255 255 256 256 257 257 258 258 258 259 259 260 261 261 261 262 262 263 263 263 263 263 263 263 263 263 263 264 264 264 264 264 264 264 264 264 264 264 264 265 265 264 264 264 264 264 265 266 267 268 268
255 256 256 257 258 258 259 260 260 261 261 262 262 262 262 262 263 263 262 262 262 262 263 263 263 263 263 263 263 263 263 263 263 263 264 264 264 264 264 264 264 264 264 264 264 264 264 265 266 267 268 268
256 257 258 258 259 260 261 261 262 262 262 262 262 263 263 263 263 263 262 262 263 263 263 263 263 263 263 263 263 263 263 263 264 264 264 264 264 265 265 265 264 264 264 264 264 264 265 265 266 267 268 268
258 259 259 260 261 261 261 261 261 262 262 262 262 262 262 262 262 262 262 263 263 263 263 263 263 263 263 263 263 263 264 264 264 265 265 265 265 265 265 265 265 264 264 264 265 265 265 266 266 267 267 268
260 260 260 261 261 261 261 261 261 261 261 262 262 262 262 262 262 262 262 262 262 262 263 263 263 263 264 264 264 264 265 265 266 266 266 266 266 266 266 265 265 264 264 264 265 265 266 266 266 267 267 268
260 261 261 261 261 261 261 261 261 262 262 262 262 262 262 262 262 263 263 263 263 263 263 263 264 264 264 265 265 266 266 266 266 266 266 266 266 266 266 265 265 265 264 264 265 265 265 266 267 267 268 268
261 261 262 262 262 262 262 262 262 262 262 262 263 263 263 263 263 264 264 264 264 264 264 264 264 265 265 265 266 266 266 266 266 266 266 266 266 266 266 266 265 265 265 265 265 265 265 266 267 267 268 268
262 263 263 263 264 264 263 263 263 264 264 264 264 264 264 264 264 265 265 265 266 265 265 265 265 265 265 265 266 266 266 266 266 266 267 267 267 266 266 266 265 265 265 265 265 266 266 266 266 267 267 268
265 265 265 265 265 264 264 264 264 265 265 265 265 265 265 265 265 266 266 266 266 266 266 265 265 265 265 265 265 265 265 266 266 266 266 266 266 266 266 266 266 265 265 265 265 266 266 266 266 267 267 267
266 266 265 265 265 265 265 265 265 266 266 266 266 266 267 267 267 266 266 266 266 266 266 265 265 265 265 265 265 264 264 265 265 265 265 266 266 266 266 266 266 266 266 266 266 266 266 266 267 267 267 268
266 266 266 265 265 266 266 267 267 268 268 268 268 268 268 268 267 267 267 266 266 266 266 265 265 265 264 264 264 264 264 264 265 265 265 266 266 266 266 266 267 267 267 267 267 267 267 267 267 267 267 268
266 266 267 267 267 267 268 268 268 268 269 269 268 268 268 268 267 267 267 267 266 266 265 265 265 265 264 264 264 264 264 264 265 265 265 266 266 267 267 267 267 267 267 267 267 267 267 267 267 267 268 268
267 267 267 267 268 268 268 268 268 268 268 268 268 268 268 268 267 267 267 266 266 266 265 265 265 265 265 264 264 264 264 264 264 265 265 265 266 267 267 267 267 267 267 267 267 267 267 267 268 268 268 268
266 266 267 267 267 267 267 267 268 268 268 268 268 268 268 268 267 267 266 266 266 266 266 265 265 265 265 265 265 265 265 265 265 265 265 266 266 266 267 267 267 267 267 267 267 267 267 267 268 268 268 268
266 266 267 267 267 267 267 267 267 267 267 268 268 268 268 268 267 267 267 267 266 266 266 266 266 266 266 266 266 266 266 266 266 266 267 267 267 267 267 267 267 267 267 267 267 267 267 267 268 268 268 268
266 266 266 267 267 267 267 267 267 267 267 267 268 268 268 268 268 268 268 267 267 267 267 267 267 267 267 267 267 267 267 267 267 267 267 267 268 268 268 268 268 267 267 267 267 267 267 267 268 268 268 268
266 266 266 266 266 266 267 267 267 267 267 267 267 267 267 267 267 267 267 267 267 267 267 267 267 267 267 267 268 268 268 267 267 267 268 268 268 268 268 268 268 267 267 267 267 267 267 267 268 268 268 268
266 266 266 266 266 266 267 267 267 267 267 267 267 267 267 267 267 267 267 267 267 267 267 267 267 267 267 267 267 267 267 267 267 267 267 267 268 268 267 267 267 267 267 267 267 267 267 267 268 268 268 268
267 267 267 267 267 267 267 267 267 267 267 267 267 267 267 267 267 267 267 267 267 267 267 267 267 267 267 267 267 267 267 267 267 267 267 267 267 267 267 267 267 267 267 267 267 267 267 267 268 268 268 268
268 268 267 267 267 267 267 267 267 267 267 267 267 267 267 267 267 267 267 267 267 267 268 268 267 267 267 267 267 267 267 267 267 267 267 267 267 267 267 267 267 267 267 267 267 267 267 267 267 267 267 267
268 268 268 268 268 268 268 267 267 267 267 267 267 267 267 267 267 267 267 267 267 267 268 268 268 267 267 267 267 267 267 267 267 267 267 267 267 267 267 267 267 267 267 266 266 266 267 266 266 266 266 266
269 268 268 268 268 268 268 267 267 267 267 267 267 267 267 267 267 267 267 267 267 267 267 267 267 267 267 267 267 267 267 267 267 267 266 266 266 266 266 266 266 266 266 266 266 266 266 266 266 265 265 265
269 269 269 268 268 268 268 267 267 267 267 267 267 267 267 266 266 266 266 266 266 266 266 267 267 267 267 267 266 266 266 266 266 266 266 266 266 266 266 266 265 265 265 265 265 265 265 265 265 265 265 265
269 269 269 269 269 268 268 268 267 267 267 267 267 267 267 266 266 266 266 266 266 266 266 266 266 266 266 266 266 266 266 266 266 266 266 266 266 266 266 265 265 265 265 265 264 264 264 264 264 264 264 264
270 270 270 269 269 269 269 268 268 268 268 267 267 267 267 267 266 266 266 266 266 266 266 266 266 266 266 266 266 266 266 266 266 266 266 265 265 265 265 265 265 265 265 264 264 264 264 264 264 264 264 264
270 270 270 270 269 269 269 269 268 268 268 268 267 267 267 267 267 267 266 266 266 266 266 266 266 266 266 266 265 265 265 266 266 266 266 265 265 265 265 265 265 265 265 264 264 264 264 264 264 264 263 263
270 270 270 270 269 269 269 269 268 268 268 268 267 267 267 267 266 266 266 266 266 266 266 266 266 265 265 265 265 265 265 265 265 265 265 265 265 265 265 265 265 265 265 264 264 263 263 263 263 263 263 263
271 270 270 270 269 269 269 269 269 268 268 268 267 267 267 266 266 266 265 265 265 265 265 265 265 265 265 265 265 264 264 264 264 264 264 264 264 264 264 264 264 264 264 264 263 263 263 262 262 262 263 262
271 271 271 271 270 270 270 269 269 269 269 269 268 268 267 267 267 266 266 266 265 265 265 265 265 264 264 264 264 264 264 263 263 264 263 263 263 263 263 263 263 263 263 263 263 262 262 262 262 262 262 262
272 272 272 271 271 271 270 270 270 269 269 269 269 268 268 268 268 267 267 267 266 266 266 265 265 265 265 264 264 264 264 263 263 263 263 263 263 263 263 262 262 263 263 263 262 262 262 261 261 261 261 261
274 273 273 273 272 272 271 271 271 270 270 269 269 268 268 268 268 267 267 267 266 266 266 266 265 265 265 265 265 265 264 264 264 263 263 263 263 263 262 262 262 262 262 262 262 262 261 261 261 260 260 260